Weather History for Grand Marais, MN

Change the Weather History Date:

Thursday, January 31, 2013

  Actual Average (KCKC) Record (KCKC)
Temperature  
Mean Temperature 5 °F -  
Max Temperature 9 °F 19 °F 39 °F (1999)
Min Temperature 0 °F 3 °F -20 °F (2014)
Degree Days  
Heating Degree Days 60    
Moisture  
Dew Point -7 °F    
Average Humidity 58    
Maximum Humidity 66    
Minimum Humidity 50    
Precipitation  
Precipitation 0.00 in - - ()
Sea Level Pressure  
Sea Level Pressure 29.90 in    
Wind  
Wind Speed 9 mph (NW)    
Max Wind Speed 22 mph    
Max Gust Speed 38 mph    
Averages and records for this station are not official NWS values.
T = Trace of Precipitation, MM = Missing Value Source: NWS Daily Summary

Daily Weather History Graph

Daily Weather History Graph

Search for Another Location

Airport:

Trip Planner

Search our weather history database for the weather conditions in past years. The results will help you decide how hot, cold, wet, or windy it might be!

Date:

Astronomy

Jan. 31, 2013 Rise Set
Actual Time 7:29 AM CST 5:01 PM CST
Civil Twilight 6:56 AM CST 5:34 PM CST
Nautical Twilight 6:19 AM CST 6:11 PM CST
Astronomical Twilight 5:42 AM CST 6:47 PM CST
Moon 10:30 PM CST (1/31) 9:04 AM CST (1/31)
Length of Visible Light 10h 38m
Length of Day
9h 31m
Waning Gibbous, 79% of the Moon is Illuminated
Jan 31
Waning Gibbous
Feb 3
Last Quarter
Feb 10
New
Feb 17
First Quarter
Feb 25
Full

Hourly Weather History & Observations

Time (CST) Temp. Windchill Dew Point Humidity Pressure Visibility Wind Dir Wind Speed Gust Speed Precip Events Conditions
12:56 AM 8.1 °F -3.2 °F -2.9 °F 61% 29.67 in - Variable 6.9 mph 18.4 mph N/A   Unknown
1:56 AM 7.0 °F -13.1 °F -2.9 °F 64% 29.66 in - NNW 20.7 mph 35.7 mph N/A   Unknown
2:56 AM 7.0 °F -13.1 °F -2.9 °F 64% 29.66 in - NNW 20.7 mph 33.4 mph N/A   Unknown
3:56 AM 7.0 °F -13.1 °F -4.0 °F 61% 29.67 in - NNW 20.7 mph 38.0 mph N/A   Unknown
4:56 AM 6.1 °F -14.8 °F -5.1 °F 60% 29.69 in - NNW 21.9 mph 35.7 mph N/A   Unknown
5:56 AM 5.0 °F - -7.1 °F 58% 29.74 in - Calm Calm - N/A   Unknown
6:56 AM 3.9 °F -5.3 °F -8.0 °F 58% 29.78 in - Variable 4.6 mph - N/A   Unknown
7:56 AM 1.9 °F -7.6 °F -9.9 °F 58% 29.82 in - Variable 4.6 mph - N/A   Unknown
8:56 AM 3.0 °F -8.0 °F -9.0 °F 57% 29.84 in - Variable 5.8 mph - N/A   Unknown
9:56 AM 3.9 °F -3.4 °F -9.0 °F 55% 29.87 in - Variable 3.5 mph - N/A   Unknown
10:56 AM 5.0 °F -2.1 °F -8.0 °F 55% 29.90 in - Variable 3.5 mph - N/A   Unknown
11:56 AM 7.0 °F -1.7 °F -8.0 °F 51% 29.90 in - West 4.6 mph 25.3 mph N/A   Unknown
12:56 PM 8.1 °F -0.5 °F -7.1 °F 50% 29.90 in - Variable 4.6 mph - N/A   Unknown
1:56 PM 9.0 °F 2.4 °F -5.1 °F 53% 29.91 in - Variable 3.5 mph - N/A   Unknown
2:56 PM 9.0 °F -2.2 °F -4.0 °F 56% 29.94 in - Variable 6.9 mph - N/A   Unknown
3:56 PM 9.0 °F 0.6 °F -4.0 °F 56% 29.97 in - Variable 4.6 mph - N/A   Unknown
4:56 PM 7.0 °F - -5.1 °F 58% 29.99 in - Calm Calm - N/A   Unknown
5:56 PM 6.1 °F -0.9 °F -5.1 °F 60% 30.02 in - Variable 3.5 mph - N/A   Unknown
6:56 PM 5.0 °F -5.6 °F -7.1 °F 58% 30.04 in - Variable 5.8 mph - N/A   Unknown
7:56 PM 5.0 °F -6.9 °F -7.1 °F 58% 30.06 in - Variable 6.9 mph 23.0 mph N/A   Unknown
8:56 PM 3.9 °F -8.2 °F -8.0 °F 58% 30.09 in - Variable 6.9 mph - N/A   Unknown
9:56 PM 1.9 °F -5.6 °F -9.0 °F 60% 30.11 in - Variable 3.5 mph - N/A   Unknown
10:56 PM 1.0 °F -8.7 °F -9.9 °F 60% 30.12 in - West 4.6 mph - N/A   Unknown
11:56 PM -0.0 °F -13.0 °F -9.0 °F 66% 30.14 in - West 6.9 mph - N/A   Unknown